Welcome to the New NWS' Forecast!
Most changes are behind the scenes, but click here for differences you might notice.

Regional Weather Roundup (RWR)

Issued by National Weather Service (NWS)

                            
147 
ASUS46 KSEW 181810
RWRWA 

WASHINGTON REGIONAL WEATHER ROUNDUP
NATIONAL WEATHER SERVICE SEATTLE WA
1100 AM PDT TUE SEP 18 2018

NOTE:"FAIR" INDICATES FEW OR NO CLOUDS BELOW 12,000 FEET WITH NO 
SIGNIFICANT WEATHER AND/OR OBSTRUCTIONS TO VISIBILITY.

WAZ507-509-555>559-181900-
SEATTLE, TACOMA, EVERETT, AND VICINITY
  
CITY           SKY/WX    TMP DP  RH WIND       PRES   REMARKS
EVERETT        CLOUDY    54  48  80 VRB6      30.14S                  
6HR MIN TEMP:  46; 6HR MAX TEMP:  54;                                

BOEING FIELD   PTSUNNY   57  47  69 NE5       30.14S                  
6HR MIN TEMP:  49; 6HR MAX TEMP:  57;                                

RENTON         PTSUNNY   58  48  69 N5        30.13F                  
6HR MIN TEMP:  46; 6HR MAX TEMP:  58;                                

SEATAC AIRPORT PTSUNNY   56  47  71 MISG      30.14R                  
6HR MIN TEMP:  48; 6HR MAX TEMP:  56;                                

JBLM-MCCHORD   NOT AVBL                                               
PUYALLUP       FAIR      59  48  67 VRB5      30.13S                  
BREMERTON      SUNNY     58  47  66 NE6       30.14S                  
6HR MIN TEMP:  36; 6HR MAX TEMP:  58;                                

JBLM-FT LEWIS  NOT AVBL                                               
TACOMA NARROWS MOSUNNY   54  47  77 N7        30.14R                  
6HR MIN TEMP:  44; 6HR MAX TEMP:  55;                                

$$
 
WAZ001-503-506-510-514-515-181900-
NORTH INTERIOR
  
CITY           SKY/WX    TMP DP  RH WIND       PRES   REMARKS
BELLINGHAM     PTSUNNY   57  48  72 W5        30.14R                  
6HR MIN TEMP:  45; 6HR MAX TEMP:  58;                                

FRIDAY HARBOR  SUNNY     60  47  61 VRB6      30.15S                  
6HR MIN TEMP:  42; 6HR MAX TEMP:  60;                                

EASTSOUND      PTSUNNY   55  52  88 VRB3      30.14S                  
PORT ANGELES   SUNNY     58  47  66 E8        30.15S                  
6HR MIN TEMP:  41; 6HR MAX TEMP:  59;                                

EDIZ HOOK      FAIR      57  48  73 E3        30.16R                  
6HR MIN TEMP:  45; 6HR MAX TEMP:  57;                                

PORT TOWNSEND  CLOUDY    57  48  72 N9        30.14S                  
NAS WHIDBEY    PTSUNNY   59  50  72 W7        30.18S                  
6HR MIN TEMP:  44; 6HR MAX TEMP:  58;                                

ARLINGTON      SUNNY     54  49  83 NW5       30.14S                  
6HR MIN TEMP:  39; 6HR MAX TEMP:  54;                                

BURLINGTON     PTSUNNY   57  50  77 NW6       30.14S                  
$$
 
WAZ020-022-039-040-504-511-512-181900-
SOUTHWEST INTERIOR
  
CITY           SKY/WX    TMP DP  RH WIND       PRES   REMARKS
SHELTON        SUNNY     59  46  62 NE6       30.12S                  
6HR MIN TEMP:  35; 6HR MAX TEMP:  59;                                

OLYMPIA        PTSUNNY   57  47  69 NE7       30.14S                  
6HR MIN TEMP:  35; 6HR MAX TEMP:  57;                                

CHEHALIS       FAIR      57  50  77 N7        30.13S                  
KELSO          SUNNY     57  46  66 N9        30.13S                  
6HR MIN TEMP:  42; 6HR MAX TEMP:  57;                                

VANCOUVER      SUNNY     56  50  80 SE6       30.11S                  
6HR MIN TEMP:  45; 6HR MAX TEMP:  57;                                

SCAPPOOSE, OR  SUNNY     60  46  59 NE9       30.10S                  
6HR MIN TEMP:  44; 6HR MAX TEMP:  60;                                

PORTLAND, OR   MOSUNNY   55  48  77 E7        30.11F                  
6HR MIN TEMP:  50; 6HR MAX TEMP:  55;                                

$$
 
WAZ021-516-517-181900-
WASHINGTON COAST
  
CITY           SKY/WX    TMP DP  RH WIND       PRES   REMARKS
FORKS          SUNNY     56  47  71 CALM      30.13F                  
6HR MIN TEMP:  35; 6HR MAX TEMP:  57;                                

HOQUIAM        SUNNY     55  49  80 E5        30.14F                  
6HR MIN TEMP:  41; 6HR MAX TEMP:  55;                                

ASTORIA, OR    SUNNY     59  48  67 CALM      30.13S                  
6HR MIN TEMP:  41; 6HR MAX TEMP:  59;                                

$$
 
WAZ019-023-024-040-567>569-181900-
CASCADE MOUNTAINS AND COLUMBIA GORGE
  
CITY           SKY/WX    TMP DP  RH WIND       PRES   REMARKS
STAMPEDE PASS  SUNNY     45  42  89 VRB5      30.10S                  
6HR MIN TEMP:  41; 6HR MAX TEMP:  45;                                

TROUTDALE, OR  PTSUNNY   55  48  77 SW3       30.11S                  
6HR MIN TEMP:  45; 6HR MAX TEMP:  56;                                

HOOD RIVER, OR CLEAR     59  48  67 E3        30.07F                  
THE DALLES, OR SUNNY     62  47  57 CALM      30.05F                  
6HR MIN TEMP:  47; 6HR MAX TEMP:  63;                                

$$

WAZ026-027-041>044-520-521-181900-
EAST SLOPES
  
CITY           SKY/WX    TMP DP  RH WIND       PRES   REMARKS
OMAK           SUNNY     63  44  50 N15       30.06F                  
6HR MIN TEMP:  45; 6HR MAX TEMP:  63;                                

WENATCHEE      SUNNY     58  41  53 W6        30.06F                  
6HR MIN TEMP:  44; 6HR MAX TEMP:  58;                                

ELLENSBURG     SUNNY     59  42  53 E3        30.07S                  
6HR MIN TEMP:  36; 6HR MAX TEMP:  59;                                

YAKIMA         SUNNY     62  41  46 NW6       30.06F                  
6HR MIN TEMP:  37; 6HR MAX TEMP:  62;                                

SUNNYSIDE ARPT CLEAR     58  43  57 CALM      30.07S                  
6HR MIN TEMP:  36; 6HR MAX TEMP:  58;                                

YAKIMA TC      NOT AVBL                                               
$$

WAZ028-034-035-181900-
COLUMBIA BASIN
  
CITY           SKY/WX    TMP DP  RH WIND       PRES   REMARKS
EPHRATA        SUNNY     64  35  34 CALM      30.05F                  
6HR MIN TEMP:  43; 6HR MAX TEMP:  64;                                

MOSES LAKE     SUNNY     62  35  36 N3        30.07S                  
6HR MIN TEMP:  38; 6HR MAX TEMP:  62;                                

PASCO          SUNNY     62  41  46 SW5       30.07F                  
6HR MIN TEMP:  39; 6HR MAX TEMP:  62;                                

RICHLAND ARPT  CLEAR     64  42  44 CALM      30.07F                  
6HR MIN TEMP:  41; 6HR MAX TEMP:  64;                                

HERMISTON, OR  SUNNY     64  43  46 N5        30.06F                  
6HR MIN TEMP:  43; 6HR MAX TEMP:  64;                                

$$

WAZ036>038-181900-
NORTHEAST WASHINGTON
  
CITY           SKY/WX    TMP DP  RH WIND       PRES   REMARKS
SPOKANE GEIGER MOSUNNY   58  38  47 VRB5      30.06S                  
6HR MIN TEMP:  40; 6HR MAX TEMP:  58;                                

SPOKANE FELTS  SUNNY     57  39  51 S3        30.06F                  
6HR MIN TEMP:  40; 6HR MAX TEMP:  58;                                

FAIRCHILD AFB  NOT AVBL                                               
COEURDALENE,ID SUNNY     59  40  49 NE8       30.05F                  
6HR MIN TEMP:  40; 6HR MAX TEMP:  59;                                

DEER PARK      SUNNY     59  37  44 VRB5      30.05F                  
6HR MIN TEMP:  33; 6HR MAX TEMP:  59;                                

$$

WAZ029>033-181900-
SOUTHEAST WASHINGTON
  
CITY           SKY/WX    TMP DP  RH WIND       PRES   REMARKS
PULLMAN        SUNNY     60  37  42 W3        30.07S                  
6HR MIN TEMP:  38; 6HR MAX TEMP:  60;                                

LEWISTON, ID   MOSUNNY   62  39  42 CALM      30.04F                  
6HR MIN TEMP:  50; 6HR MAX TEMP:  62;                                

WALLA WALLA    SUNNY     62  37  39 W6        30.06S                  
6HR MIN TEMP:  48; 6HR MAX TEMP:  62;                                

PENDLETON, OR  SUNNY     63  38  39 VRB5      30.06S                  
6HR MIN TEMP:  41; 6HR MAX TEMP:  63;                                

$$